STARLINK-5237, 54196

Orbit data source: Space-Track

STARLINK-5237, 54196 is a payload satellite owned by SpaceX/Seattle (US) in LEO that was launched on Fri, 28 Oct 2022 UTC via an FALCON 9 launch vehicle from the Air Force Western Test Range (AFWTR). Payload-class satellites include a variety of spacecraft equipped with specific instruments for various scientific and technological missions. These include communications satellites like Starlink; space stations such as the ISS; scientific satellites like the Hubble; Earth observation satellites from companies like Planet Labs, Umbra, and HawkEye 360; GPS; miniature CubeSats for education and research; and military/defense satellites.

Loading next visibility...
Identifier
54196, 2022-141AR
Orbit
LEO
Country
Flag of USUS
Related business
Manufacturer
SpaceX/Seattle
Mission
Operational Commercial Communications
Bus & Motor
STARLINK, Unknown motor
Mass
305 kg wet, ~290 kg dry
Launch date (UTC)
2022-10-28 (4 years ago)
Launch vehicle
FALCON 9
Launch site
Air Force Western Test Range (AFWTR)
Object type
Payload
Rocket body
Debris
Shape & HBR
Box + 1 Pan, 10.1 m
Radar Cross Section
13.562 m², Large (>1 m²)

Expand to show TLE details & history
Last TLE update: 2 days ago

TLE from 2 days ago
0 STARLINK-5237
1 54196U 22141AR  26171.45532112  .00000740  00000-0  64616-4 0  9993
2 54196  53.1591 252.5546 0001082  80.3196 279.7918 15.08831224201514
Epoch: 2026-06-20T10:55Z
TLE epoch observation values (Epoch: 2026-06-20T10:55:39.744Z)
Latitude
-0°
Longitude
179.9693°
Altitude
540.534 km
Speed
7.593 km/s
True Right ascension
16h 50m 13s
True Declination
0° 00' 00"
Sunlit
Object was in full shadow at epoch
Visualization orbit readout
Latitude
Unknown
Longitude
Unknown
Altitude
Unknown
Speed
Unknown
Apparent Right ascension
Unknown
Apparent Declination
Unknown
Sunlit
N/A
Visualization observer readout
Local Sidereal Time
23:08:16
Azimuth
Unknown
Elevation
Unknown
Doppler factor
Unknown
Orbital elements
Apogee altitude
540.773 km
Perigee altitude
539.276 km
Semi-major axis
6,918.161 km
Eccentricity
0.00011
Inclination
53.1591°
RAAN
252.5546°
Arg. of periapsis
80.3196°
True anomaly
279.77958°
Mean anomaly
279.7918°
Eccentric anomaly
279.78569°
Mean motion
3.77187 °/min
Orbital period
95.44 mins
BSTAR
0.000064616
Loading maneuver chart data...
Computing Atmospheric mass density...

Documentation

Showing up to 5 results
|